Location: Newark
(0.5300°S, 127.4800°E)
Time: 09:41:01
(UTC+00:00)

SR - All Passes

Search period start: 22 October 2019 00:00
Search period end: 01 November 2019 00:00
Orbit: 574 x 881 km, 66.7° (Epoch: 22 October)

Date Brightness Start Highest point End Pass type
(mag) Time Alt. Az. Time Alt. Az. Time Alt. Az.
22 Oct - 00:48:32 10° WNW 00:51:49 16° WSW 00:55:00 10° SW daylight
22 Oct - 11:30:32 10° SSW 11:34:54 88° ESE 11:39:36 10° NNE visible
22 Oct - 22:17:09 10° NE 22:20:22 15° ENE 22:23:30 10° ESE daylight
22 Oct - 23:57:01 10° NW 00:02:18 39° WSW 00:07:16 10° S daylight
23 Oct - 10:41:36 10° S 10:45:24 29° ESE 10:49:24 10° NE visible
23 Oct - 12:25:29 10° W 12:27:15 12° WNW 12:29:03 10° NW visible
23 Oct - 23:07:01 10° NNW 23:12:47 84° ENE 23:18:08 10° SSE daylight
24 Oct - 11:33:34 10° SW 11:37:33 34° WNW 11:41:49 10° N visible
24 Oct - 22:18:00 10° N 22:23:09 34° ENE 22:28:01 10° SE daylight
25 Oct - 00:01:23 10° WNW 00:04:56 17° WSW 00:08:20 10° SSW daylight
25 Oct - 10:43:35 10° SSW 10:47:59 80° ESE 10:52:41 10° NNE visible
25 Oct - 21:30:36 10° NE 21:33:27 14° ENE 21:36:14 10° E daylight
25 Oct - 23:10:04 10° NW 23:15:25 42° WSW 23:20:25 10° S daylight
26 Oct - 09:54:47 10° SSE 09:58:29 26° ESE 10:02:23 10° NE visible
26 Oct - 11:38:05 10° W 11:40:19 13° WNW 11:42:36 10° NW visible
26 Oct - 22:20:08 10° NNW 22:25:52 78° ENE 22:31:13 10° SSE daylight
27 Oct - 10:46:32 10° SW 10:50:37 37° WNW 10:55:01 10° N visible
27 Oct - 21:31:14 10° N 21:36:15 31° ENE 21:40:58 10° SE daylight
27 Oct - 23:14:16 10° WNW 23:18:01 18° WSW 23:21:37 10° SSW daylight
28 Oct - 09:56:40 10° SSW 10:01:03 73° ESE 10:05:47 10° NNE visible
28 Oct - 20:44:09 10° NE 20:46:32 13° ENE 20:48:51 10° E visible
28 Oct - 22:23:07 10° NW 22:28:31 45° WSW 22:33:34 10° S daylight
29 Oct - 09:07:58 10° SSE 09:11:33 24° ESE 09:15:20 10° NE daylight
29 Oct - 10:50:47 10° WSW 10:53:22 15° WNW 10:56:03 10° NNW visible
29 Oct - 21:33:17 10° NNW 21:38:58 72° ENE 21:44:15 10° SSE daylight
30 Oct - 09:59:30 10° SW 10:03:41 41° WNW 10:08:12 10° N visible
30 Oct - 20:44:28 10° N 20:49:20 29° ENE 20:53:56 10° SE visible
30 Oct - 22:27:10 10° WNW 22:31:07 20° WSW 22:34:54 10° SSW daylight
31 Oct - 09:09:44 10° SSW 09:14:07 66° ESE 09:18:51 10° NNE daylight
31 Oct - 19:57:50 10° NE 19:59:37 11° ENE 20:01:21 10° E visible
31 Oct - 21:36:10 10° NW 21:41:37 49° WSW 21:46:41 10° S daylight
